Regional Weather Roundup
Issued by NWS Burlington, VT

Home | Current Version | Previous Version | Graphics & Text | Print | Product List | Glossary On
Versions: 1 2 3 4 5 6 7 8 9 10 11 12 13 14 15 16 17 18 19 20 21 22 23 24 25 26 27 28 29 30 31 32 33 34 35 36 37 38 39 40 41 42 43 44 45 46 47 48 49 50
000
ASUS41 KBTV 160510
RWRBTV
VERMONT REGIONAL WEATHER ROUNDUP
NATIONAL WEATHER SERVICE BURLINGTON VT
100 AM EDT WED APR 16 2014

NOTE: "FAIR" INDICATES FEW OR NO CLOUDS BELOW 12,000 FEET WITH NO
SIGNIFICANT WEATHER AND/OR OBSTRUCTIONS TO VISIBILITY.

* THESE REPORTS ARE NOT UNDER NWS QUALITY CONTROL AND/OR DO NOT
  REPORT WEATHER SUCH AS PRECIPITATION AND FOG.

VTZ001>019-160600-
_____VERMONT_____


CITY           SKY/WX    TMP DP  RH WIND       PRES   REMARKS
BURLINGTON     CLOUDY    27  19  72 NW20G26   29.96R WCI  13
MONTPELIER     LGT SNOW  24  22  91 NW18G28   29.89R VSB 1   WCI  10
MORRISVILLE    LGT SNOW  24  21  88 CALM      29.91R VSB 1
ST. JOHNSBURY*   N/A     27  23  85 MISG      29.85R
LYNDONVILLE*   LGT SNOW  26  22  85 W7G16     29.85R
MIDDLEBURY*    LGT SNOW  28  28 100 W12G17    29.91R WCI  18
RUTLAND*       CLOUDY    30  28  93 NW8       29.87R
SPRINGFIELD    LGT SNOW  32  29  88 NW10G20   29.83R FOG
HIGHGATE*      CLOUDY    27  20  75 W7G18     29.95R
NEWPORT*       LGT SNOW  26  21  81 W7        29.86S
BENNINGTON     CLOUDY    28  24  85 W12G23    29.91R WCI  18
SUTTON*          N/A     23 N/A N/A MISG        N/A

_____LAKE CHAMPLAIN_____


CITY           SKY/WX    TMP DP  RH WIND       PRES   REMARKS
COLCHESTER RF*   N/A     30  21  69 NW24        N/A  WCI  16
DIAMOND ISL*     N/A     32  21  64 N28         N/A

$$

NYZ007-026>031-035-052-083-160600-
_____NORTHERN NEW YORK_____


CITY           SKY/WX    TMP DP  RH WIND       PRES   REMARKS
PLATTSBURGH    CLOUDY    26  18  71 W8G22     29.97R
SARANAC LAKE   LGT SNOW  17  13  84 W8        29.91R FOG
MASSENA        FLURRIES  24  15  68 W15G22    30.05R WCI  11
OGDENSBURG*    PTCLDY    25  18  74 NW10G18   30.08R WCI  15
POTSDAM*       FLURRIES  25  18  74 NW10G17   30.06R WCI  15
WATERTOWN      CLOUDY    28  15  58 W13       30.08R WCI  17
FT DRUM        MOCLDY    25  19  80 NW7       30.06R
ALBANY         CLOUDY    30  22  72 W16G25    29.98R WCI  19
GLENS FALLS    CLOUDY    30  28  92 SW3       29.93R

$$
NHZ002-005-011-160600-
_____NEW HAMPSHIRE_____


CITY           SKY/WX    TMP DP  RH WIND       PRES   REMARKS
LEBANON        LGT SNOW  34  31  88 W3        29.81R FOG
KEENE          CLOUDY    34  27  75 W5        29.83R
PLYMOUTH       LGT SNOW  33  32  95 NW7       29.77R
WHITEFIELD     SNOW      30  27  88 W9        29.81S VSB 1/2

$$

_____REGIONAL QUEBEC LOCATIONS_____


CITY           SKY/WX    TMP DP  RH WIND       PRES   REMARKS
MONTREAL       MOCLDY    23  14  68 W18       29.97R WCI   9
QUEBEC CITY    LGT SNOW  23  19  86 W20G25    29.78R WCI   8
SHERBROOKE     LGT SNOW  23  23 100 W16G23    29.83R VSB 3/4 WCI  10

_____REGIONAL ONTARIO LOCATIONS_____


CITY           SKY/WX    TMP DP  RH WIND       PRES   REMARKS
OTTAWA         PTCLDY    21  10  63 NW20G28   30.07R WCI   6

______KEY______
VSB  - VISIBILITY IN MILES
WCI  - WIND CHILL INDEX
HX   - HEAT INDEX
$$



USA.gov is the U.S. government's official web portal to all federal, state and local government web resources and services.